N8QF-1 Weather Reports


Display with metric or nautical units.
time (UTC)temp
F
wind
direction
speed
MPH
gust
MPH
rain 1hr
in
rain 24hr
in
rain mn
in
humidity
%
barometer
mb
20260831014419 78 55 3.0 3.0 0.00 0.00 0.00 67 1018.8
20260831013919 78 51 2.0 2.0 0.00 0.00 0.00 67 1018.9
20260831013418 78 37 2.0 2.0 0.00 0.00 0.00 67 1018.9
20260831012416 78 340 0.0 0.0 0.00 0.00 0.00 68 1018.9
20260831011916 78 340 0.0 0.0 0.00 0.00 0.00 67 1018.8
20260831011415 78 340 0.0 0.0 0.00 0.00 0.00 67 1018.9
20260831010915 78 340 0.0 0.0 0.00 0.00 0.00 66 1018.8
20260831010414 79 340 0.0 0.0 0.00 0.00 0.00 65 1018.8
20260831005914 79 340 0.0 0.0 0.00 0.00 0.00 65 1018.8
20260831005413 79 340 0.0 0.0 0.00 0.00 0.00 64 1018.6
20260831004913 80 340 0.0 0.0 0.00 0.00 0.00 64 1018.4
20260831004412 80 340 0.0 0.0 0.00 0.00 0.00 63 1018.3
20260831003912 80 340 0.0 0.0 0.00 0.00 0.00 62 1018.3
20260831003411 80 340 0.0 0.0 0.00 0.00 0.00 61 1018.3
20260831002911 81 340 0.0 0.0 0.00 0.00 0.00 60 1018.3
20260831002410 81 340 0.0 0.0 0.00 0.00 0.00 59 1018.2
20260831001408 82 340 0.0 0.0 0.00 0.00 0.00 58 1018.1
20260831000908 82 340 0.0 0.0 0.00 0.00 0.00 56 1018.2
20260831000407 83 340 0.0 0.0 0.00 0.00 0.00 55 1018.3
20260830235906 83 340 0.0 0.0 0.00 0.00 0.00 53 1018.3
20260830235406 84 340 0.0 1.0 0.00 0.00 0.00 52 1018.2
20260830234905 84 340 0.0 3.0 0.00 0.00 0.00 51 1018.1
20260830234405 85 290 2.0 8.0 0.00 0.00 0.00 50 1018.1
20260830233905 85 277 2.0 5.0 0.00 0.00 0.00 48 1018.1
20260830233404 85 260 0.0 5.0 0.00 0.00 0.00 47 1018.0
20260830232902 86 290 3.0 5.0 0.00 0.00 0.00 46 1018.0
20260830232402 86 285 3.0 5.0 0.00 0.00 0.00 46 1017.9
20260830231901 86 285 2.0 7.0 0.00 0.00 0.00 45 1018.0
20260830231401 86 249 6.0 9.0 0.00 0.00 0.00 44 1018.0
20260830230900 87 231 5.0 9.0 0.00 0.00 0.00 44 1018.0
20260830230400 87 242 5.0 8.0 0.00 0.00 0.00 44 1017.8
20260830225859 87 255 4.0 8.0 0.00 0.00 0.00 44 1017.7
20260830225359 86 219 4.0 7.0 0.00 0.00 0.00 45 1017.6
20260830224858 86 240 4.0 7.0 0.00 0.00 0.00 44 1017.7
20260830224357 86 242 5.0 8.0 0.00 0.00 0.00 45 1017.6
20260830223856 86 228 3.0 7.0 0.00 0.00 0.00 44 1017.6
20260830223355 87 207 4.0 12.0 0.00 0.00 0.00 44 1017.5
20260830222855 87 240 5.0 9.0 0.00 0.00 0.00 43 1017.6
20260830222355 87 217 6.0 9.0 0.00 0.00 0.00 43 1017.6
20260830221854 87 250 6.0 8.0 0.00 0.00 0.00 44 1017.7
20260830221353 86 231 4.0 8.0 0.00 0.00 0.00 44 1017.7
20260830220853 86 218 4.0 8.0 0.00 0.00 0.00 45 1017.5
20260830220352 86 250 5.0 9.0 0.00 0.00 0.00 45 1017.4
20260830215852 86 240 6.0 6.0 0.00 0.00 0.00 44 1017.6
20260830215351 86 266 4.0 8.0 0.00 0.00 0.00 45 1017.7
20260830214851 86 208 5.0 9.0 0.00 0.00 0.00 44 1017.7
20260830214350 86 255 3.0 8.0 0.00 0.00 0.00 45 1017.7
20260830213850 86 219 4.0 6.0 0.00 0.00 0.00 46 1017.7
20260830212849 86 236 4.0 6.0 0.00 0.00 0.00 46 1017.8
20260830212348 86 201 3.0 9.0 0.00 0.00 0.00 46 1017.8
20260830211848 86 224 5.0 8.0 0.00 0.00 0.00 46 1017.9
20260830211347 86 233 6.0 9.0 0.00 0.00 0.00 46 1017.9
20260830210847 86 238 4.0 5.0 0.00 0.00 0.00 46 1017.9
20260830205846 86 162 5.0 9.0 0.00 0.00 0.00 45 1017.7
20260830205345 86 181 5.0 11.0 0.00 0.00 0.00 45 1017.6
20260830204344 86 194 5.0 8.0 0.00 0.00 0.00 47 1017.7
20260830203843 86 217 3.0 7.0 0.00 0.00 0.00 47 1018.0
20260830203342 86 232 4.0 8.0 0.00 0.00 0.00 46 1018.1
20260830202841 85 211 6.0 7.0 0.00 0.00 0.00 46 1018.3
20260830202341 85 226 4.0 8.0 0.00 0.00 0.00 47 1018.3
20260830201840 85 256 6.0 7.0 0.00 0.00 0.00 47 1018.4
20260830201340 86 195 3.0 6.0 0.00 0.00 0.00 46 1018.6
20260830200839 86 173 4.0 8.0 0.00 0.00 0.00 46 1018.8
20260830200339 86 239 5.0 7.0 0.00 0.00 0.00 46 1018.9
20260830195838 86 277 4.0 7.0 0.00 0.00 0.00 47 1019.0
20260830195338 85 328 2.0 7.0 0.00 0.00 0.00 47 1019.0
20260830194837 85 302 4.0 5.0 0.00 0.00 0.00 47 1019.2
20260830194337 86 188 3.0 7.0 0.00 0.00 0.00 46 1019.2
20260830193836 86 243 2.0 7.0 0.00 0.00 0.00 46 1019.4
20260830193336 86 291 4.0 6.0 0.00 0.00 0.00 46 1019.4
20260830192835 86 117 1.0 5.0 0.00 0.00 0.00 46 1019.5
20260830192335 85 229 3.0 8.0 0.00 0.00 0.00 46 1019.7
20260830191834 85 294 5.0 5.0 0.00 0.00 0.00 47 1019.8
20260830190833 85 308 5.0 8.0 0.00 0.00 0.00 46 1020.0
20260830190332 85 252 5.0 11.0 0.00 0.00 0.00 46 1020.1
20260830185832 85 264 7.0 12.0 0.00 0.00 0.00 46 1020.2
20260830185331 86 248 5.0 8.0 0.00 0.00 0.00 46 1020.3
20260830184831 86 257 5.0 8.0 0.00 0.00 0.00 45 1020.4
20260830184330 85 326 7.0 10.0 0.00 0.00 0.00 45 1020.5
20260830183830 85 304 8.0 12.0 0.00 0.00 0.00 45 1020.6
20260830183329 85 255 8.0 11.0 0.00 0.00 0.00 46 1020.5
20260830182829 85 249 7.0 14.0 0.00 0.00 0.00 45 1020.5
20260830181828 85 301 7.0 13.0 0.00 0.00 0.00 46 1020.6
20260830181327 85 273 9.0 13.0 0.00 0.00 0.00 46 1020.6
20260830180827 86 277 8.0 13.0 0.00 0.00 0.00 46 1020.6
20260830180326 86 245 9.0 11.0 0.00 0.00 0.00 46 1020.6
20260830175826 86 253 9.0 12.0 0.00 0.00 0.00 45 1020.9
20260830175325 85 284 10.0 15.0 0.00 0.00 0.00 45 1020.8
20260830174825 86 248 6.0 13.0 0.00 0.00 0.00 47 1021.0
20260830173824 85 252 6.0 14.0 0.00 0.00 0.00 49 1021.0
20260830173323 85 243 11.0 11.0 0.00 0.00 0.00 48 1021.1
20260830172823 86 290 7.0 15.0 0.00 0.00 0.00 48 1021.0
20260830172322 86 283 7.0 11.0 0.00 0.00 0.00 48 1021.1
20260830171821 86 278 8.0 9.0 0.00 0.00 0.00 47 1021.1
20260830171321 86 323 5.0 12.0 0.00 0.00 0.00 47 1021.1
20260830170820 86 262 8.0 13.0 0.00 0.00 0.00 45 1021.2
20260830170320 86 257 7.0 10.0 0.00 0.00 0.00 48 1021.2
20260830165818 85 293 7.0 11.0 0.00 0.00 0.00 50 1021.1
20260830164817 85 242 8.0 11.0 0.00 0.00 0.00 49 1021.0
20260830163814 86 250 5.0 10.0 0.00 0.00 0.00 49 1021.1
20260830162813 85 259 6.0 11.0 0.00 0.00 0.00 49 1021.1
20260830161812 84 207 7.0 15.0 0.00 0.00 0.00 51 1021.0
20260830161312 85 226 6.0 10.0 0.00 0.00 0.00 50 1021.0
20260830160811 84 288 6.0 9.0 0.00 0.00 0.00 51 1020.9
20260830160311 84 222 7.0 11.0 0.00 0.00 0.00 52 1021.0
20260830155810 84 239 3.0 12.0 0.00 0.00 0.00 53 1021.0
20260830155310 84 240 7.0 13.0 0.00 0.00 0.00 54 1020.9
20260830154809 84 215 3.0 8.0 0.00 0.00 0.00 53 1020.9
20260830154308 84 20 1.0 7.0 0.00 0.00 0.00 55 1020.9
20260830153808 84 194 3.0 9.0 0.00 0.00 0.00 57 1020.7
20260830153340 83 217 5.0 8.0 0.00 0.00 0.00 56 1020.8
20260830153307 83 217 5.0 8.0 0.00 0.00 0.00 56 1020.8
20260830152807 83 188 5.0 7.0 0.00 0.00 0.00 56 1020.7
20260830152306 83 233 3.0 6.0 0.00 0.00 0.00 57 1020.7
20260830151806 82 214 2.0 6.0 0.00 0.00 0.00 59 1020.8
20260830151306 81 155 3.0 7.0 0.00 0.00 0.00 60 1020.7
20260830150805 82 222 6.0 9.0 0.00 0.00 0.00 60 1020.6
20260830150304 81 131 5.0 9.0 0.00 0.00 0.00 61 1020.6
20260830145804 80 201 7.0 8.0 0.00 0.00 0.00 61 1020.6
20260830145306 80 158 4.0 8.0 0.00 0.00 0.00 62 1020.4
20260830144803 79 166 5.0 8.0 0.00 0.00 0.00 63 1020.4
20260830144302 79 152 5.0 7.0 0.00 0.00 0.00 65 1020.3
20260830143801 79 224 5.0 7.0 0.00 0.00 0.00 65 1020.2
20260830143300 79 231 6.0 10.0 0.00 0.00 0.00 64 1020.1
20260830142259 79 197 6.0 8.0 0.00 0.00 0.00 63 1020.0
20260830141759 78 187 5.0 8.0 0.00 0.00 0.00 64 1020.0
20260830141258 78 226 3.0 8.0 0.00 0.00 0.00 64 1020.0
20260830140757 78 210 5.0 7.0 0.00 0.00 0.00 64 1019.9
20260830140257 78 231 1.0 2.0 0.00 0.00 0.00 65 1020.0
20260830135756 77 195 1.0 6.0 0.00 0.00 0.00 66 1019.9
20260830134754 77 148 3.0 7.0 0.00 0.00 0.00 66 1019.9
20260830134330 76 158 4.0 8.0 0.00 0.00 0.00 67 1020.0
20260830134254 76 158 4.0 8.0 0.00 0.00 0.00 67 1020.0
20260830133853 76 224 4.0 5.0 0.00 0.00 0.00 69 1019.9
20260830133753 76 224 4.0 5.0 0.00 0.00 0.00 69 1019.9
20260830133253 75 148 3.0 5.0 0.00 0.00 0.00 69 1019.9
20260830132252 75 158 3.0 5.0 0.00 0.00 0.00 70 1020.0
20260830131250 74 187 3.0 4.0 0.00 0.00 0.00 72 1020.1
20260830130749 74 127 2.0 5.0 0.00 0.00 0.00 73 1020.0
20260830125246 74 155 1.0 3.0 0.00 0.00 0.00 72 1020.3
20260830124745 73 117 2.0 3.0 0.00 0.00 0.00 72 1020.3
20260830124245 73 49 1.0 3.0 0.00 0.00 0.00 73 1020.4
20260830123744 73 84 0.0 2.0 0.00 0.00 0.00 73 1020.4
20260830123244 73 96 2.0 2.0 0.00 0.00 0.00 74 1020.5
20260830122743 72 49 0.0 2.0 0.00 0.00 0.00 76 1020.5
20260830121742 71 94 1.0 3.0 0.00 0.00 0.00 77 1020.4
20260830121243 71 114 1.0 2.0 0.00 0.00 0.00 78 1020.4
20260830120741 70 75 2.0 4.0 0.00 0.00 0.00 79 1020.3
20260830120241 70 49 1.0 2.0 0.00 0.00 0.00 80 1020.4
20260830115740 70 58 1.0 2.0 0.00 0.00 0.00 81 1020.4
20260830115239 69 59 0.0 0.0 0.00 0.00 0.00 82 1020.4
20260830114739 69 59 0.0 0.0 0.00 0.00 0.00 82 1020.3
20260830114238 69 59 0.0 2.0 0.00 0.00 0.00 82 1020.2
20260830113738 69 30 2.0 3.0 0.00 0.00 0.00 82 1020.2
20260830112737 69 58 0.0 0.0 0.00 0.00 0.00 83 1020.1
20260830112236 69 58 0.0 0.0 0.00 0.00 0.00 83 1020.1
20260830111736 69 58 0.0 0.0 0.00 0.00 0.00 82 1020.0
20260830111235 69 52 0.0 0.0 0.00 0.00 0.00 81 1020.0
20260830110735 69 69 0.0 0.0 0.00 0.00 0.00 81 1019.9
20260830105233 70 69 0.0 0.0 0.00 0.00 0.00 79 1019.8
20260830104733 70 69 0.0 0.0 0.00 0.00 0.00 79 1019.8
20260830103731 70 82 1.0 1.0 0.00 0.00 0.00 78 1019.7
20260830103231 70 76 0.0 4.0 0.00 0.00 0.00 78 1019.6
20260830102730 70 91 1.0 2.0 0.00 0.00 0.00 78 1019.6
20260830101729 70 91 1.0 2.0 0.00 0.00 0.00 79 1019.6
20260830101229 70 148 0.0 1.0 0.00 0.00 0.00 79 1019.6
20260830100728 70 89 0.0 0.0 0.00 0.00 0.00 78 1019.7
20260830100228 70 89 0.0 0.0 0.00 0.00 0.00 78 1019.7
20260830095727 70 89 0.0 0.0 0.00 0.00 0.00 78 1019.8
20260830095227 71 89 0.0 0.0 0.00 0.00 0.00 77 1019.8
20260830094726 71 89 0.0 0.0 0.00 0.00 0.00 76 1019.8
20260830094226 71 89 0.0 1.0 0.00 0.00 0.00 76 1019.8
20260830093725 71 56 0.0 3.0 0.00 0.00 0.00 76 1019.7
20260830093225 71 107 1.0 4.0 0.00 0.00 0.00 76 1019.6
20260830092724 71 93 2.0 4.0 0.00 0.00 0.00 76 1019.6
20260830092224 71 136 2.0 3.0 0.00 0.00 0.00 76 1019.6
20260830091810 71 135 1.0 4.0 0.00 0.00 0.00 76 1019.7
20260830091723 71 135 1.0 4.0 0.00 0.00 0.00 76 1019.7
20260830091222 71 125 2.0 3.0 0.00 0.00 0.00 76 1019.6
20260830090722 71 115 1.0 3.0 0.00 0.00 0.00 76 1019.6
20260830090221 71 65 1.0 4.0 0.00 0.00 0.00 76 1019.6
20260830085221 71 91 0.0 1.0 0.00 0.00 0.00 76 1019.6
20260830084720 71 91 1.0 2.0 0.00 0.00 0.00 76 1019.6
20260830084220 71 86 0.0 2.0 0.00 0.00 0.00 76 1019.7
20260830083719 71 118 1.0 3.0 0.00 0.00 0.00 76 1019.7
20260830083218 71 105 1.0 2.0 0.00 0.00 0.00 77 1019.8
20260830082718 71 105 1.0 2.0 0.00 0.00 0.00 77 1019.7
20260830082217 71 93 0.0 0.0 0.00 0.00 0.00 78 1019.7
20260830081717 71 80 0.0 1.0 0.00 0.00 0.00 78 1019.5
20260830081216 71 80 0.0 1.0 0.00 0.00 0.00 78 1019.6
20260830080716 70 113 0.0 0.0 0.00 0.00 0.00 79 1019.6
20260830080215 70 82 0.0 0.0 0.00 0.00 0.00 79 1019.8
20260830075715 70 82 0.0 0.0 0.00 0.00 0.00 79 1019.7
20260830075214 71 82 0.0 0.0 0.00 0.00 0.00 79 1019.8
20260830074714 71 82 0.0 2.0 0.00 0.00 0.00 79 1019.8
20260830074213 70 82 1.0 2.0 0.00 0.00 0.00 79 1019.8
20260830073713 71 73 1.0 2.0 0.00 0.00 0.00 79 1019.8
20260830073212 71 82 0.0 0.0 0.00 0.00 0.00 79 1019.9
20260830072711 70 103 0.0 0.0 0.00 0.00 0.00 79 1019.9
20260830072211 71 103 0.0 3.0 0.00 0.00 0.00 79 1019.9
20260830071710 70 103 0.0 3.0 0.00 0.00 0.00 79 1020.0
20260830071210 70 87 1.0 3.0 0.00 0.00 0.00 79 1020.1
20260830070709 70 77 1.0 3.0 0.00 0.00 0.00 80 1020.1
20260830070209 70 354 0.0 0.0 0.00 0.00 0.00 80 1020.1
20260830065708 70 354 0.0 0.0 0.00 0.00 0.00 81 1020.2
20260830065208 70 354 0.0 0.0 0.00 0.00 0.00 81 1020.2
20260830064707 70 354 0.0 0.0 0.00 0.00 0.00 81 1020.2
20260830064206 70 354 0.0 0.0 0.00 0.00 0.00 81 1020.3
20260830063705 70 354 0.0 0.0 0.00 0.00 0.00 82 1020.2
20260830063205 70 354 0.0 0.0 0.00 0.00 0.00 82 1020.2
20260830062704 70 354 0.0 0.0 0.00 0.00 0.00 83 1020.2
20260830062204 69 354 0.0 0.0 0.00 0.00 0.00 83 1020.3
20260830061203 69 354 0.0 0.0 0.00 0.00 0.00 84 1020.2
20260830060702 69 354 0.0 0.0 0.00 0.00 0.00 84 1020.3
20260830060202 69 354 0.0 0.0 0.00 0.00 0.00 85 1020.4
20260830055701 69 354 0.0 0.0 0.00 0.00 0.00 85 1020.4
20260830055200 69 354 0.0 0.0 0.00 0.00 0.00 85 1020.5
20260830054700 69 354 0.0 0.0 0.00 0.00 0.00 85 1020.4
20260830054159 69 354 0.0 0.0 0.00 0.00 0.00 85 1020.4
20260830053659 69 354 0.0 0.0 0.00 0.00 0.00 85 1020.4
20260830053158 69 354 0.0 0.0 0.00 0.00 0.00 85 1020.4
20260830052156 69 354 0.0 0.0 0.00 0.00 0.00 85 1020.3
20260830051656 69 20 0.0 2.0 0.00 0.00 0.00 85 1020.3
20260830051155 69 20 1.0 0.0 0.00 0.00 0.00 85 1020.4
20260830050654 69 24 0.0 0.0 0.00 0.00 0.00 84 1020.3
20260830050153 69 24 0.0 0.0 0.00 0.00 0.00 84 1020.2
20260830045653 70 24 0.0 0.0 0.00 0.00 0.00 83 1020.2
20260830045152 70 24 0.0 0.0 0.00 0.00 0.00 82 1020.2
20260830044652 70 24 0.0 0.0 0.00 0.00 0.00 82 1020.3
20260830044151 70 24 0.0 0.0 0.00 0.00 0.00 81 1020.2
20260830043651 70 24 0.0 0.0 0.00 0.00 0.00 81 1020.2
20260830043150 70 24 0.0 0.0 0.00 0.00 0.00 81 1020.1
20260830042649 71 24 0.0 0.0 0.00 0.00 0.00 80 1020.0
20260830042149 71 24 0.0 0.0 0.00 0.00 0.00 80 1020.1
20260830041648 71 24 0.0 0.0 0.00 0.00 0.00 79 1020.0
20260830041148 71 24 0.0 0.0 0.00 0.00 0.00 79 1020.1
20260830040147 71 24 0.0 0.0 0.00 0.00 0.00 79 1020.0
20260830035646 71 24 0.0 0.0 0.00 0.00 0.00 80 1020.0
20260830035146 71 24 0.0 0.0 0.00 0.00 0.00 79 1020.1
20260830034645 71 24 0.0 0.0 0.00 0.00 0.00 78 1020.1
20260830034145 71 24 0.0 0.0 0.00 0.00 0.00 77 1020.1
20260830033644 71 24 0.0 0.0 0.00 0.00 0.00 76 1020.0
20260830033144 71 24 0.0 0.0 0.00 0.00 0.00 75 1020.1
20260830032643 72 24 0.0 2.0 0.00 0.00 0.00 75 1020.0
20260830032143 72 24 0.0 2.0 0.00 0.00 0.00 74 1020.0
20260830031642 72 20 0.0 0.0 0.00 0.00 0.00 74 1020.0
20260830031142 72 21 0.0 0.0 0.00 0.00 0.00 73 1020.1
20260830030641 72 21 0.0 0.0 0.00 0.00 0.00 72 1020.0
20260830030141 72 21 0.0 0.0 0.00 0.00 0.00 71 1020.0
20260830025640 73 21 0.0 0.0 0.00 0.00 0.00 70 1020.1
20260830025140 73 21 0.0 0.0 0.00 0.00 0.00 70 1020.0
20260830024639 73 21 0.0 0.0 0.00 0.00 0.00 70 1020.0
20260830024138 73 21 0.0 0.0 0.00 0.00 0.00 69 1020.0
20260830023637 73 21 0.0 0.0 0.00 0.00 0.00 68 1020.0
20260830023137 73 21 0.0 0.0 0.00 0.00 0.00 68 1019.9
20260830022636 74 21 0.0 0.0 0.00 0.00 0.00 68 1020.1
20260830022136 74 21 0.0 0.0 0.00 0.00 0.00 67 1020.1
20260830021135 74 21 0.0 2.0 0.00 0.00 0.00 66 1019.9
20260830020634 74 15 1.0 0.0 0.00 0.00 0.00 66 1019.9
20260830020133 74 34 0.0 0.0 0.00 0.00 0.00 66 1019.8
20260830015633 75 34 0.0 0.0 0.00 0.00 0.00 65 1019.9
20260830015132 75 34 0.0 0.0 0.00 0.00 0.00 65 1019.9